Date,TemperatureHighF,TemperatureAvgF,TemperatureLowF,DewpointHighF,DewpointAvgF,DewpointLowF,HumidityHigh,HumidityAvg,HumidityLow,PressureMaxIn,PressureMinIn,WindSpeedMaxMPH,WindSpeedAvgMPH,GustSpeedMaxMPH,PrecipitationSumIn
2013-4-1,57.4,42.7,32.5,47.0,34.8,17.6,98,76,42,29.89,29.56,23,4,30,0.02
2013-4-2,39.7,34.1,28.8,21.4,16.8,13.0,65,49,35,30.03,29.88,27,6,27,0.00
2013-4-3,42.9,35.1,29.5,22.4,18.2,15.9,71,50,36,30.29,30.02,28,7,32,0.00
2013-4-4,54.7,41.1,23.4,27.9,22.2,17.6,83,49,29,30.36,29.98,17,3,19,0.00
2013-4-5,57.7,46.0,37.7,29.3,25.6,22.5,63,46,30,29.99,29.74,22,6,24,0.00
2013-4-6,47.4,37.9,30.5,26.6,17.2,10.2,73,45,25,30.30,29.99,22,5,22,0.00
2013-4-7,59.1,47.0,29.7,42.3,30.1,21.4,76,53,32,30.26,29.89,24,6,28,0.00
2013-4-8,60.9,51.4,41.1,43.1,39.0,35.9,89,64,45,30.10,29.93,18,3,18,0.00
2013-4-9,68.1,59.9,50.4,51.4,46.3,41.4,77,61,44,30.00,29.83,19,5,22,0.00
2013-4-10,60.7,53.1,47.3,51.4,48.8,43.2,97,86,66,30.00,29.80,14,2,15,0.33
2013-4-11,47.2,42.6,32.8,45.8,34.5,26.0,96,75,49,30.14,29.86,17,5,17,0.13
2013-4-12,41.6,37.5,32.8,38.8,34.8,30.7,97,90,79,30.13,29.76,18,3,19,0.45
2013-4-13,52.8,44.4,37.2,42.4,38.5,35.1,96,81,57,29.93,29.80,10,1,11,0.04
2013-4-14,49.7,43.1,32.9,40.3,33.1,27.7,94,70,46,30.23,29.92,18,3,20,0.00
2013-4-15,62.6,46.3,29.9,39.2,33.2,27.8,93,64,41,30.36,30.21,14,2,15,0.00
2013-4-16,62.1,54.4,44.7,55.1,45.0,31.6,92,71,57,30.33,30.04,21,5,23,0.10
2013-4-17,64.0,54.0,43.1,54.2,40.2,35.3,94,63,36,30.31,30.11,16,4,19,0.08
2013-4-18,64.3,51.1,34.4,48.8,39.2,32.6,95,67,39,30.34,30.06,21,4,25,0.00
2013-4-19,73.3,63.3,46.1,63.5,58.0,44.4,94,84,70,30.06,29.53,24,6,25,0.53
2013-4-20,58.5,47.4,37.0,44.4,36.0,27.8,95,68,37,30.33,29.70,19,5,23,0.32
2013-4-21,51.0,41.0,32.4,30.6,23.3,19.4,78,50,33,30.64,30.33,20,4,20,0.00
2013-4-22,59.0,45.8,31.7,33.8,28.8,22.8,89,56,29,30.70,30.48,16,4,17,0.00
2013-4-23,52.8,43.3,31.3,41.0,34.8,27.8,89,72,62,30.53,30.13,9,2,10,0.00
2013-4-24,74.4,55.8,35.7,52.4,44.7,33.8,95,69,44,30.13,29.71,19,3,22,0.00
2013-4-25,59.7,51.2,40.6,53.5,35.7,30.3,92,57,36,30.26,29.75,22,5,28,0.05
2013-4-26,59.6,47.4,32.6,39.2,34.2,30.1,93,64,39,30.44,30.26,20,3,20,0.00
2013-4-27,66.3,49.9,30.9,42.2,34.2,28.8,96,60,28,30.45,30.26,14,2,15,0.00
2013-4-28,76.0,57.6,36.8,44.7,39.2,32.8,93,56,28,30.30,30.10,14,2,16,0.00
2013-4-29,59.6,55.5,51.6,51.3,45.3,33.0,95,71,41,30.22,30.17,11,2,14,0.07
2013-4-30,72.5,60.2,49.5,50.4,44.3,33.4,95,61,32,30.30,30.20,14,2,16,0.01